Location: Alexandria
(38.8050°N, 77.0470°W)
Time: 03:21:19
(UTC-05:00)

Tiangong 2 - Pass Details

Date: 18 February 2018
Orbit: 384 x 389 km, 42.8° (Epoch: 23 February)

Event Time Altitude Azimuth Distance (km) Brightness Sun altitude
Rises 18:42:15 0° 287° (WNW) 2,265 6.3 -11.0°
Reaches altitude 10° 18:44:23 10° 295° (WNW) 1,409 4.9 -11.4°
Maximum altitude 18:47:26 42° 8° (N) 562 1.8 -12.0°
Enters shadow 18:49:08 21° 69° (ENE) 917 2.4 -12.3°
